Simultaneous Nadir Overpasses (SNOs) Predictions

Prediction of SNOs between LANDSAT-8 and NOAA-19 Satellite Orbit:

Table of predicted SNOs for the next 14.0 days since TLE Epoch: 11/28/2020
Index Date (LANDSAT-8) Time (LANDSAT-8) Lat,Lon (LANDSAT-8) SZA (LANDSAT-8 ) Date (NOAA-19) Time (NOAA-19) Lat,Lon (NOAA-19) SZA (NOAA-19 ) Distance(km) Time Diff (sec)
1 11/28/2020 17:50:23 80.07, -59.36 102.85 11/28/2020 17:49:44 80.09, -59.29 102.86 2.24 39
2 11/28/2020 18:39:50 -80.07, 108.27 77.15 11/28/2020 18:40:48 -80.06, 108.27 77.13 0.72 58
3 11/30/2020 23:24:07 -80.10, 37.45 76.76 11/30/2020 23:23:03 -80.09, 37.38 76.80 1.54 64
4 12/01/2020 00:13:34 80.07,-155.18 103.20 12/01/2020 00:13:58 80.08,-155.15 103.22 1.48 24
5 12/03/2020 05:47:18 -80.10, -58.38 76.46 12/03/2020 05:47:17 -80.09, -58.57 76.48 3.70 1
6 12/05/2020 11:21:02 80.08, 38.08 103.80 12/05/2020 11:20:27 80.10, 38.13 103.80 2.10 35
7 12/05/2020 12:10:29 -80.09,-154.24 76.20 12/05/2020 12:11:30 -80.07,-154.24 76.19 1.91 61
8 12/07/2020 16:54:46 -80.11, 134.86 75.94 12/07/2020 16:53:45 -80.11, 134.79 75.96 1.39 61
9 12/07/2020 17:44:13 80.07, -57.83 104.01 12/07/2020 17:44:41 80.09, -57.76 104.05 2.93 28
10 12/09/2020 23:17:57 -80.10, 38.95 75.76 12/09/2020 23:17:58 -80.09, 39.08 75.75 2.57 1
11 12/12/2020 04:51:40 80.10, 135.58 104.41 12/12/2020 04:51:10 80.12, 135.46 104.41 2.87 30
